Vertical_Velocity
-8 -3 -4 -6 -6 -2 -3 -0 -2 -3 -4 -1 1 0 -4 1 1 -3 -2 -0 -2 -6
-5 -6 -4 -3 -6 -1 -1 -3 -2 -5 -4 -1 -2 -5 -3 1 4 -6 -1 -1 -1 -3
-1 1 -1 -3 -0 -1 -1 -5 -7 -6 -4 -5 -3 -5 -10 -5 2 -2 2 -2 -2 0
-1 -0 -1 -2 -2 -2 -3 -6 -4 -5 -2 -2 -2 -3 -1 -3 -2 -1 -2 -0 -3 1
-5 -3 -3 1 -5 -7 -5 -2 -2 -6 -3 -7 -6 -2 -2 -1 -2 -4 -1 -0 -1 2
-4 0 -2 -3 -3 -2 -4 3 -2 -3 -3 -4 -3 -2 -2 -3 1 1 0 1 -1 2
-1 -2 -2 -3 -5 -2 0 -0 -3 -2 -1 -2 -3 -3 -1 2 -1 -0 -3 -6 -6 -2
-2 -4 -4 -3 -0 -1 -1 -6 -6 -5 -3 -3 -3 -6 3 -0 0 0 4 3 6 8
-1 -4 -7 -1 -2 -5 -0 -8 -3 -3 -7 1 -0 -3 -5 -6 1 -1 -0 0 0 -3
-4 -6 -2 -3 -3 -3 3 -3 -2 -3 -6 3 -4 -4 -2 0 1 5 1 -2 0 -0
-7 0 0 -2 -0 0 -8 -3 -2 -0 -5 1 -6 -3 -2 -3 3 -0 -4 -4 -1 0
-2 -1 -1 -2 -5 -9 -0 -2 -0 -6 -1 -3 0 -1 -3 -1 -0 -0 -2 2 1 -1
-4 -7 -2 -7 8 -7 -1 -1 1 -2 -5 -6 2 -4 -1 -4 -6 -6 -2 7 6 6
-6 -8 -5 -0 1 -2 2 -2 -1 -2 -3 -1 -7 4 -2 -5 -5 -8 2 2 2 4
Height
5667 5659 5649 5640 5630 5622 5612 5603 5593 5585 5578 5569 5559 5548 5537 5529 5519 5511 5504 5499 5494 5492
5647 5637 5628 5619 5609 5601 5590 5583 5574 5563 5554 5542 5531 5519 5508 5499 5489 5479 5469 5462 5456 5452
5628 5618 5608 5598 5587 5576 5566 5556 5549 5538 5526 5515 5502 5489 5479 5468 5457 5446 5436 5430 5425 5420
5609 5598 5587 5576 5565 5556 5546 5534 5523 5511 5499 5487 5474 5460 5448 5436 5429 5423 5418 5414 5410 5408
5588 5578 5566 5555 5544 5534 5524 5511 5497 5486 5473 5459 5446 5434 5424 5418 5414 5411 5407 5403 5398 5393
5568 5558 5548 5537 5526 5514 5501 5488 5475 5460 5447 5434 5424 5417 5411 5409 5405 5400 5395 5390 5384 5377
5551 5540 5529 5518 5508 5493 5480 5468 5453 5437 5425 5416 5410 5406 5403 5399 5394 5388 5383 5377 5369 5361
5533 5522 5512 5500 5487 5474 5461 5446 5431 5418 5409 5404 5400 5397 5393 5388 5383 5378 5373 5365 5356 5347
5516 5507 5496 5482 5468 5454 5440 5424 5411 5402 5399 5396 5391 5387 5383 5378 5372 5367 5361 5352 5343 5334
5502 5489 5475 5462 5448 5434 5422 5409 5399 5394 5392 5387 5383 5378 5373 5368 5362 5357 5350 5341 5332 5322
5484 5471 5457 5442 5429 5418 5406 5397 5391 5389 5384 5379 5376 5370 5364 5357 5352 5346 5339 5331 5321 5312
5466 5455 5441 5427 5416 5404 5395 5389 5386 5382 5376 5372 5368 5361 5355 5348 5342 5336 5329 5320 5311 5301
5447 5436 5424 5412 5403 5393 5387 5383 5380 5377 5370 5364 5359 5353 5347 5339 5332 5326 5318 5311 5301 5291
5429 5420 5409 5400 5392 5384 5381 5377 5373 5370 5364 5358 5352 5345 5339 5331 5323 5316 5309 5300 5292 5281